Weather History for Providence, RI

Change the Weather History Date:

Friday, September 28, 2012

  Actual Average Record
Temperature  
Mean Temperature 59 °F 60 °F  
Max Temperature 62 °F 70 °F 86 °F (2014)
Min Temperature 55 °F 50 °F 33 °F (1980)
Degree Days  
Heating Degree Days 6 6  
Month to date heating degree days 59 76  
Since 1 July heating degree days 59 85  
Cooling Degree Days 0 1  
Month to date cooling degree days 57 78  
Year to date cooling degree days 830 734  
Growing Degree Days 8 (Base 50)    
Moisture  
Dew Point 55 °F    
Average Humidity 84    
Maximum Humidity 100    
Minimum Humidity 67    
Precipitation  
Precipitation 1.64 in 0.14 in 1.64 in (2012)
Month to date precipitation 5.12 3.65  
Year to date precipitation 30.79 34.25  
Snow  
Snow 0.00 in 0.00 in 0.00 in (2001)
Month to date snowfall 0.0 0.0  
Since 1 July snowfall 0.0 0.0  
Since 1 September snowfall 0.0 0.0  
Snow Depth 0.00 in    
Sea Level Pressure  
Sea Level Pressure 30.08 in    
Wind  
Wind Speed 8 mph (ENE)    
Max Wind Speed 17 mph    
Max Gust Speed 24 mph    
Visibility 8 miles    
Events Rain    
T = Trace of Precipitation, MM = Missing Value Source: NWS Daily Summary

Daily Weather History Graph

Daily Weather History Graph

Search for Another Location

Airport:

Trip Planner

Search our weather history database for the weather conditions in past years. The results will help you decide how hot, cold, wet, or windy it might be!

Date:

Astronomy

Sep. 28, 2012 Rise Set
Actual Time 6:39 AM EDT 6:31 PM EDT
Civil Twilight 6:12 AM EDT 6:59 PM EDT
Nautical Twilight 5:39 AM EDT 7:31 PM EDT
Astronomical Twilight 5:07 AM EDT 8:04 PM EDT
Moon 5:32 PM EDT (9/28) 5:06 AM EDT (9/28)
Length of Visible Light 12h 47m
Length of Day
11h 51m
Waxing Gibbous, 98% of the Moon is Illuminated
Sep 28
Waxing Gibbous
Sep 29
Full
Oct 8
Last Quarter
Oct 15
New
Oct 21
First Quarter

Hourly Weather History & Observations

Time (EDT) Temp. Dew Point Humidity Pressure Visibility Wind Dir Wind Speed Gust Speed Precip Events Conditions
12:51 AM 57.0 °F 51.1 °F 81% 30.24 in 10.0 mi NE 4.6 mph - N/A   Overcast
1:51 AM 57.0 °F 51.1 °F 81% 30.24 in 10.0 mi NE 3.5 mph - N/A   Overcast
2:51 AM 57.0 °F 51.1 °F 81% 30.24 in 10.0 mi NE 3.5 mph - N/A   Overcast
3:51 AM 57.0 °F 51.1 °F 81% 30.22 in 9.0 mi ENE 6.9 mph - 0.00 in Rain Light Rain
4:51 AM 57.0 °F 48.9 °F 74% 30.23 in 9.0 mi East 4.6 mph - 0.00 in   Light Drizzle
5:51 AM 55.9 °F 50.0 °F 80% 30.22 in 10.0 mi ENE 5.8 mph - 0.00 in   Light Drizzle
6:51 AM 55.9 °F 50.0 °F 80% 30.23 in 10.0 mi NE 5.8 mph - 0.00 in   Overcast
7:51 AM 55.9 °F 51.1 °F 84% 30.22 in 10.0 mi NE 5.8 mph - 0.00 in   Overcast
8:51 AM 57.0 °F 51.1 °F 81% 30.21 in 10.0 mi ENE 4.6 mph - 0.00 in   Overcast
9:51 AM 57.9 °F 51.1 °F 78% 30.20 in 10.0 mi ENE 4.6 mph - N/A   Overcast
10:51 AM 61.0 °F 51.1 °F 70% 30.20 in 10.0 mi SE 10.4 mph - N/A   Overcast
11:51 AM 62.1 °F 52.0 °F 70% 30.17 in 10.0 mi SE 13.8 mph 21.9 mph N/A   Overcast
12:51 PM 60.1 °F 53.1 °F 78% 30.15 in 10.0 mi SE 12.7 mph 20.7 mph 0.00 in Rain Light Rain
1:51 PM 59.0 °F 55.0 °F 87% 30.11 in 10.0 mi East 8.1 mph - 0.03 in Rain Light Rain
2:46 PM 59.0 °F 55.4 °F 88% 30.08 in 10.0 mi East 6.9 mph - 0.05 in Rain Light Rain
2:51 PM 59.0 °F 55.0 °F 87% 30.08 in 10.0 mi East 9.2 mph - 0.05 in Rain Light Rain
3:51 PM 60.1 °F 57.0 °F 90% 30.06 in 10.0 mi ESE 6.9 mph - 0.06 in Rain Light Rain
4:37 PM 60.8 °F 57.2 °F 88% 30.05 in 1.5 mi Variable 5.8 mph - 0.07 in Rain Light Rain
4:40 PM 60.8 °F 57.2 °F 88% 30.05 in 3.0 mi ESE 9.2 mph - 0.14 in Rain Rain
4:51 PM 60.1 °F 57.0 °F 90% 30.04 in 9.0 mi ESE 5.8 mph - 0.16 in Rain Light Rain
5:27 PM 60.8 °F 57.2 °F 88% 30.03 in 10.0 mi East 8.1 mph - 0.00 in Rain Light Rain
5:51 PM 60.1 °F 57.9 °F 93% 30.01 in 7.0 mi ESE 6.9 mph - 0.01 in Rain Light Rain
6:38 PM 60.8 °F 59.0 °F 94% 30.01 in 4.0 mi Variable 3.5 mph - 0.12 in Rain Heavy Rain
6:51 PM 60.1 °F 57.9 °F 93% 30.01 in 4.0 mi East 10.4 mph - 0.16 in Rain Rain
7:51 PM 61.0 °F 60.1 °F 97% 29.99 in 8.0 mi East 9.2 mph - 0.02 in Rain Light Rain
8:11 PM 60.8 °F 60.8 °F 100% 29.98 in 10.0 mi East 11.5 mph - 0.01 in Rain Light Rain
8:51 PM 61.0 °F 59.0 °F 93% 29.97 in 10.0 mi North 10.4 mph - 0.01 in Rain Light Rain
9:04 PM 60.8 °F 59.0 °F 94% 29.97 in 4.0 mi NW 13.8 mph - 0.04 in Rain Heavy Rain
9:09 PM 60.8 °F 57.2 °F 88% 29.99 in 2.0 mi WNW 13.8 mph - 0.12 in Rain Heavy Rain
9:18 PM 59.0 °F 57.2 °F 94% 29.97 in 1.2 mi North 13.8 mph - 0.37 in Rain Heavy Rain
9:38 PM 59.0 °F 57.2 °F 94% 29.97 in 2.0 mi North 13.8 mph - 0.92 in Rain Heavy Rain
9:51 PM 59.0 °F 57.9 °F 96% 29.97 in 2.0 mi NNE 9.2 mph - 1.05 in Rain Heavy Rain
10:00 PM 59.0 °F 57.2 °F 94% 29.96 in 5.0 mi NNE 8.1 mph - 0.04 in Rain Light Rain
10:32 PM 59.0 °F 57.2 °F 94% 29.96 in 5.0 mi North 6.9 mph - 0.09 in   Overcast
10:51 PM 59.0 °F 57.0 °F 93% 29.96 in 5.0 mi North 9.2 mph - 0.09 in   Overcast
11:14 PM 59.0 °F 57.2 °F 94% 29.95 in 7.0 mi North 9.2 mph - 0.00 in Rain Light Rain
11:51 PM 57.9 °F 57.0 °F 97% 29.95 in 7.0 mi North 9.2 mph - 0.00 in   Overcast